Hourly Weather Roundup
Issued by NWS Central Illinois

Home | Current Version | Previous Version | Text Only | Print | Product List | Glossary On
Versions: 1 2 3 4 5 6 7 8 9 10 11 12 13 14 15 16 17 18 19 20 21 22 23 24 25 26 27 28 29 30 31 32 33 34 35 36 37 38 39 40 41 42 43 44 45 46 47 48 49 50
193
NZUS43 KILX 281610
HWRILX

AREA WEATHER ROUNDUP
NATIONAL WEATHER SERVICE, LINCOLN IL
1100 AM CDT SAT MAY 28 2016


CITY           SKY/WX    TMP DP  RH WIND       PRES   REMARKS
BLOOMINGTON    CLOUDY    73  67  81 S20       29.96R
CHAMPAIGN      CLOUDY    74  67  78 S20       29.98R
DANVILLE       RAIN      73  66  80 S18G24    29.97R
DECATUR        CLOUDY    75  65  70 S17G25    29.96R
EFFINGHAM      CLOUDY    74  69  85 S7        30.01R
FLORA          CLOUDY    75  67  76 S14       29.99S
GALESBURG      PTSUNNY   75  66  73 S12G17    29.88S
JACKSONVILLE   MOSUNNY   75  67  75 S10G17    29.91S
LACON          CLOUDY    73  64  75 SW9       29.90S
LAWRENCEVILLE  CLOUDY    78  67  68 S15       30.02S HX  80
LITCHFIELD     SUNNY     74  66  75 S15       29.95S
$$


CITY           SKY/WX    TMP DP  RH WIND       PRES   REMARKS
LINCOLN        CLOUDY    75  67  76 S7G20     29.94S
MACOMB         CLOUDY    74  67  76 S12G17    29.90S
MATTOON        CLOUDY    73  65  75 S12       29.99R
MT CARMEL AP   CLOUDY    78  66  66 S10       30.01S HX  80
OLNEY-NOBLE AP CLOUDY    73  68  83 S14       30.00S
PARIS          CLOUDY    73  68  83 S9        30.01S
PEORIA         CLOUDY    74  65  73 S16       29.91S
PONTIAC        CLOUDY    75  67  76 S17G23    29.95R
RANTOUL        CLOUDY    74  68  82 S13G22    29.97S
ROBINSON       CLOUDY    75  67  76 S9        30.02S
SPRINGFIELD    PTSUNNY   77  66  68 S13       29.94R
TAYLORVILLE    CLOUDY    74  67  79 S16G23    29.96R
$$

...REGIONAL REPORTS...


CITY           SKY/WX    TMP DP  RH WIND       PRES   REMARKS
CHICAGO O`HARE CLOUDY    75  65  70 S20G26    29.91R
KANKAKEE       CLOUDY    74  65  75 S18       29.97R
MOLINE         MOSUNNY   78  64  61 S12G24    29.84S HX  80
MOUNT STERLING PTSUNNY   74  66  75 S12       29.89R
MOUNT VERNON   CLOUDY    73  64  73 S12       30.00S
PITTSFIELD     MOSUNNY   75  68  78 S10G17    29.91S
QUINCY         PTSUNNY   75  65  70 S12       29.88S
ROCKFORD       CLOUDY    76  65  68 SW15G28   29.90R
$$


CITY           SKY/WX    TMP DP  RH WIND       PRES   REMARKS
BURLINGTON     PTSUNNY   74  67  78 S12       29.86S
CEDAR RAPIDS   MOSUNNY   74  65  73 S18G26    29.81R
DES MOINES     CLOUDY    70  61  73 S9        29.77S
KIRKSVILLE     CLOUDY    73  65  75 S13G21    29.85S
OTTUMWA        CLOUDY    73  64  73 S17       29.81S
ST LOUIS       PTSUNNY   79  65  62 S10G20    29.93S HX  81
$$


CITY           SKY/WX    TMP DP  RH WIND       PRES   REMARKS
TERRE HAUTE    CLOUDY    77  65  66 S16G26    30.01S
EVANSVILLE     CLOUDY    80  64  58 S9        30.03S HX  82
INDIANAPOLIS   PTSUNNY   79  65  62 S16       30.03S HX  81
LAFAYETTE      CLOUDY    76  63  64 S13G25    30.00R
MADISON        CLOUDY    73  65  75 SW12G20   29.83R
MILWAUKEE      CLOUDY    75  65  70 S20       29.87R
$$






USA.gov is the U.S. government's official web portal to all federal, state and local government web resources and services.